User: anonymous   Login
Location: Sceptre
(50.8619°N, 109.2670°W)
Time: 12:41:52
(UTC+00:00)
Language:

FENGYUN 1C DEB - Orbit

View from above orbital plane
View from above orbital plane
View from above satellite
View from above satellite

Ground track
Ground track

The orbit data is extracted from the following two-line orbital elements,

1 30978U 99025BBU 22327.45351608  .00001634  00000-0  69518-3 0  9996
2 30978  98.3460  43.2563 0047627 289.0765  70.5261 14.25898239816811
Epoch (UTC): 23 November 2022 10:53:03
Eccentricity: 0.0047627
inclination: 98.3460°
perigee height: 771 km
apogee height: 839 km
right ascension of ascending node: 43.2563°
argument of perigee: 289.0765°
revolutions per day: 14.25898239
mean anomaly at epoch: 70.5261°
orbit number at epoch: 81681

The dashed part of the orbit path shows where the satellite is in the earth's shadow,  

DLR